CAPE
0 0 0 0 0 0 0 0 0 0 0 0 0 0 184 276 367 412 336 218 241 244 212 214 238 352 252 205 196 105 239 114 136 227 243 352 340 202 290 516 494 511 690 1203
0 0 0 0 0 0 0 0 0 0 0 0 0 0 202 181 289 425 421 394 240 185 119 97 128 223 164 97 152 154 137 130 44 242 350 439 408 141 342 609 428 503 780 1131
0 0 0 0 0 0 0 0 0 0 0 0 0 0 125 187 137 233 362 385 340 261 155 32 75 144 311 120 99 165 152 126 122 146 171 154 158 230 257 358 537 346 702 1040
0 0 0 0 0 0 0 0 0 0 0 0 0 0 0 91 143 63 74 267 299 228 105 17 49 71 179 237 101 93 124 193 152 149 226 376 521 622 438 351 444 699 665 814
0 0 0 0 0 0 0 0 0 0 0 0 0 0 0 1 99 81 53 32 50 62 54 6 0 34 54 156 134 51 72 196 152 189 284 303 453 307 163 308 461 374 703 858
0 0 0 0 0 0 0 0 0 0 0 0 0 0 0 0 23 60 42 68 82 50 21 11 0 0 4 126 156 52 117 204 198 131 229 284 340 139 202 160 369 422 568 715
0 0 0 0 0 0 0 0 0 0 0 0 0 0 0 0 0 0 0 0 22 90 53 18 9 0 12 81 145 62 120 171 244 200 211 312 336 215 325 221 278 263 468 590
0 0 0 0 0 0 0 0 0 0 0 0 0 0 0 0 0 0 0 0 0 0 15 32 11 0 0 35 123 68 129 132 230 313 326 393 442 360 386 251 284 320 512 715
0 0 0 0 0 0 0 0 0 0 0 0 0 0 0 0 0 0 0 0 0 0 0 0 5 0 0 2 68 57 101 128 168 405 436 459 494 504 405 360 102 237 449 606
0 0 0 0 0 0 0 0 0 0 0 0 0 0 0 0 0 0 0 0 0 0 0 0 0 0 0 0 22 80 73 115 155 445 529 554 561 525 503 406 97 154 242 488
0 0 0 0 0 0 0 0 0 0 0 0 0 0 0 0 0 0 0 0 0 0 0 0 0 0 0 0 0 27 85 159 157 539 657 714 681 630 546 477 288 207 200 249
0 0 0 0 0 0 0 0 0 0 0 0 0 0 0 0 0 0 0 0 0 0 0 0 0 0 0 0 0 0 31 199 256 338 717 801 799 712 605 554 490 377 282 147
0 0 0 0 0 0 0 0 0 0 0 0 0 0 0 0 0 0 0 0 0 0 0 0 0 0 0 0 0 0 11 176 319 380 580 769 847 850 795 762 844 648 521 277
0 0 0 0 0 0 0 0 0 0 0 0 0 0 0 0 0 0 0 0 0 0 0 0 0 0 0 0 0 0 32 159 346 418 605 678 798 834 925 1008 1071 1121 872 580
0 0 0 0 0 0 0 0 0 0 0 0 0 0 0 0 0 0 0 0 0 0 0 0 0 0 0 0 0 12 71 247 469 523 641 815 788 770 801 857 987 1129 1293 1086
0 0 0 0 0 0 0 0 0 0 0 0 0 0 0 0 0 0 0 0 0 0 0 0 0 0 0 0 0 26 108 390 552 684 710 888 976 986 906 866 838 905 1242 1424
0 0 0 0 0 0 0 0 0 0 0 0 0 0 0 0 0 0 0 0 0 0 0 0 0 0 0 0 0 56 143 526 687 815 854 929 1081 1193 1169 1089 979 861 881 1167
0 0 0 0 0 0 0 0 0 0 0 0 0 0 0 0 0 0 0 0 0 0 0 0 0 0 0 0 0 4 157 491 894 957 993 1093 1219 1263 1380 1368 1330 1254 1086 941
0 0 0 0 0 0 0 0 0 0 0 0 0 0 0 0 0 0 0 0 0 0 0 0 0 0 0 0 0 12 156 388 916 1207 1269 1328 1478 1453 1452 1616 1684 1626 1568 1456
0 0 0 0 0 0 0 0 0 0 0 0 0 0 0 0 0 0 0 0 0 0 0 0 0 0 0 0 0 0 221 399 702 1381 1549 1584 1644 1673 1615 1706 1867 1917 1950 1962
0 0 0 0 0 0 0 0 0 0 0 0 0 0 0 0 0 0 0 0 0 0 0 0 0 0 0 0 0 0 191 544 779 1136 1577 1772 1931 1949 1926 1882 1911 2056 2086 2248
0 0 0 0 0 0 6 5 0 0 0 0 0 0 0 0 0 0 0 0 0 0 0 0 0 0 0 0 5 106 376 613 775 1028 1549 1767 1988 2204 2201 2219 2239 2296 2317 2406
20 0 1 0 0 0 16 4 0 0 0 0 0 0 0 0 0 0 0 0 0 645 500 0 0 15 417 20 22 0 7 121 390 759 1070 1624 1978 2170 2383 2548 2644 2585 2579 2531
0 0 57 9 3 99 102 0 0 0 0 0 0 0 183 0 65 695 1024 1550 2008 1885 1852 1839 1835 1652 1540 1810 1078 449 545 599 252 358 608 768 1044 1615 2118 2585 2748 2797 2776 2741
0 0 0 16 0 41 130 0 0 0 0 0 0 32 821 1152 1338 1642 1352 1389 1320 1494 1386 1514 1668 1734 1549 1637 1939 2226 1940 867 832 460 441 856 763 7 1 1 17 168 1 1637
1 0 0 0 0 0 47 0 0 1 0 3 2 141 97 386 627 987 937 743 711 680 1105 1160 1307 1401 1363 1310 1480 1862 2059 1904 1965 1542 1164 267 4 1 31 0 0 1 1 0
CIN
0 0 0 0 0 0 0 0 0 0 0 0 0 0 -236 -274 -262 -245 -288 -284 -276 -285 -279 -265 -244 -220 -263 -278 -289 -332 -266 -291 -258 -222 -211 -177 -179 -209 -231 -187 -213 -234 -223 -153
0 0 0 0 0 0 0 0 0 0 0 0 0 0 -250 -264 -309 -314 -303 -296 -303 -281 -269 -288 -307 -233 -283 -370 -381 -374 -353 -315 -336 -247 -229 -170 -171 -280 -218 -175 -204 -222 -205 -164
0 0 0 0 0 0 0 0 0 0 0 0 0 0 -258 -261 -253 -263 -271 -272 -272 -270 -286 -359 -335 -347 -290 -373 -420 -412 -400 -387 -358 -316 -248 -279 -282 -275 -253 -235 -176 -229 -186 -160
0 0 0 0 0 0 0 0 0 0 0 0 0 0 0 -281 -297 -298 -318 -301 -308 -294 -277 -367 -399 -366 -382 -399 -425 -420 -391 -376 -371 -348 -289 -244 -185 -143 -188 -224 -191 -155 -175 -168
0 0 0 0 0 0 0 0 0 0 0 0 0 0 0 -102 -303 -340 -343 -389 -359 -330 -303 -255 0 -425 -433 -400 -455 -502 -465 -392 -397 -381 -322 -302 -229 -252 -328 -283 -221 -201 -171 -161
0 0 0 0 0 0 0 0 0 0 0 0 0 0 0 0 -409 -346 -335 -335 -382 -416 -412 -420 0 0 -232 -404 -417 -504 -508 -475 -444 -433 -371 -344 -296 -340 -312 -337 -230 -220 -200 -174
0 0 0 0 0 0 0 0 0 0 0 0 0 0 0 0 0 0 0 0 -311 -393 -412 -446 -495 0 -582 -487 -457 -565 -543 -516 -503 -477 -404 -346 -341 -364 -323 -354 -297 -285 -235 -223
0 0 0 0 0 0 0 0 0 0 0 0 0 0 0 0 0 0 0 0 -19 0 -421 -458 -502 0 0 -634 -558 -665 -606 -574 -530 -481 -436 -368 -329 -344 -329 -351 -318 -303 -259 -223
0 0 0 0 0 0 0 0 0 0 0 0 0 0 0 0 0 0 0 0 0 0 0 0 -416 0 0 -318 -638 -702 -683 -668 -603 -496 -453 -385 -338 -311 -360 -385 -442 -378 -316 -269
0 0 0 0 0 0 0 0 0 0 0 0 0 0 0 0 0 0 0 0 0 0 0 0 0 0 0 0 -706 -678 -712 -667 -629 -508 -445 -404 -383 -374 -363 -388 -517 -460 -417 -332
0 0 0 0 0 0 0 0 0 0 0 0 0 0 0 0 0 0 0 0 0 0 0 0 0 0 0 0 0 -719 -702 -688 -650 -560 -474 -431 -400 -374 -371 -398 -473 -485 -463 -436
0 0 0 0 0 0 0 0 0 0 0 0 0 0 0 0 0 0 0 0 0 0 0 0 0 0 0 0 0 -44 -739 -678 -694 -664 -559 -517 -491 -445 -426 -423 -434 -479 -491 -524
0 0 0 0 0 0 0 0 0 0 0 0 0 0 0 0 0 0 0 0 0 0 0 0 0 0 0 0 0 -178 -736 -723 -707 -669 -607 -541 -527 -498 -474 -447 -400 -454 -467 -528
0 0 0 0 0 0 0 0 0 0 0 0 0 0 0 0 0 0 0 0 0 0 0 0 0 0 0 0 0 0 -796 -728 -721 -693 -670 -657 -614 -608 -546 -481 -428 -415 -449 -469
0 0 0 0 0 0 0 0 0 0 0 0 0 0 0 0 0 0 0 0 0 0 0 0 0 0 0 0 0 -700 -831 -810 -775 -765 -730 -728 -715 -676 -643 -582 -486 -429 -392 -409
0 0 0 0 0 0 0 0 0 0 0 0 0 0 0 0 0 0 0 0 0 0 0 0 0 0 0 0 0 -905 -900 -854 -847 -820 -824 -792 -721 -691 -673 -637 -603 -538 -462 -377
0 0 0 0 0 0 0 0 0 0 0 0 0 0 0 0 0 0 0 0 0 0 0 0 0 0 0 0 0 -903 -900 -895 -877 -862 -870 -828 -778 -734 -697 -634 -611 -650 -600 -470
0 0 0 0 0 0 0 0 0 0 0 0 0 0 0 0 0 0 0 0 0 0 0 0 0 0 0 0 0 -410 -759 -951 -877 -875 -852 -815 -766 -741 -689 -635 -625 -607 -587 -579
0 0 0 0 0 0 0 0 0 0 0 0 0 0 0 0 0 0 0 0 0 0 0 0 0 0 0 0 0 -1041 -949 -873 -839 -784 -783 -791 -790 -746 -666 -612 -611 -558 -490 -494
0 0 0 0 0 0 0 0 0 0 0 0 0 0 0 0 0 0 0 0 0 0 0 0 0 0 0 0 0 0 -915 -920 -909 -840 -841 -842 -799 -739 -695 -678 -594 -526 -460 -422
0 0 0 0 0 0 0 0 0 0 0 0 0 0 0 0 0 0 0 0 0 0 0 0 0 0 0 0 0 0 -957 -915 -939 -915 -832 -778 -731 -678 -653 -582 -520 -471 -378 -321
0 0 0 0 0 0 -168 -95 0 0 0 0 0 0 0 0 0 0 0 0 0 0 0 0 0 0 0 0 -812 -1031 -1021 -941 -986 -959 -830 -785 -719 -638 -584 -545 -484 -444 -421 -363
-12 0 -6 0 0 0 -181 -294 0 0 0 0 0 0 0 0 0 0 0 0 0 -699 -914 0 0 -883 -765 -583 -1136 0 -396 -941 -950 -876 -853 -690 -541 -467 -458 -464 -401 -281 -262 -281
0 0 -2 -7 -6 -48 -170 0 0 0 0 0 0 0 -539 0 -98 -621 -598 -551 -526 -552 -614 -643 -648 -676 -686 -668 -874 -973 -942 -874 -887 -1022 -836 -848 -743 -551 -434 -325 -268 -218 -174 -139
-1 0 0 -1 0 -30 -83 0 0 0 0 0 0 -655 -385 -406 -395 -423 -493 -503 -560 -539 -596 -595 -583 -555 -583 -593 -568 -549 -656 -893 -804 -1016 -1048 -873 -858 -691 0 0 -671 -371 0 -293
-1 0 0 0 0 0 -87 0 0 -448 0 0 0 -481 -583 -468 -522 -494 -511 -566 -619 -642 -573 -587 -546 -511 -505 -533 -542 -517 -525 -585 -563 -645 -727 -1007 -1002 0 -964 0 0 0 0 0
Wind_Speed
7 5 12 13 8 4 6 4 7 4 3 5 9 4 9 17 15 17 18 18 18 21 18 15 15 15 14 13 12 13 13 12 9 7 6 3 6 4 3 4 5 6 5 6
5 19 11 9 8 8 6 3 6 5 7 3 5 9 8 17 22 22 20 20 21 15 15 16 16 16 16 17 17 16 16 14 12 9 8 5 6 3 4 3 4 5 6 7
17 6 12 10 7 12 6 12 5 5 6 2 5 5 8 10 5 11 15 16 16 18 18 17 18 19 18 18 18 18 19 17 14 13 6 3 3 2 2 2 3 4 6 8
6 7 20 10 12 11 9 7 6 8 2 4 5 6 6 13 19 17 15 19 20 19 17 16 17 19 21 20 17 17 16 16 15 14 11 12 10 9 6 5 5 6 7 7
11 14 14 19 14 10 8 8 9 6 5 1 3 1 8 11 13 19 20 20 21 22 21 20 21 23 23 21 19 18 17 16 15 15 16 12 11 8 5 4 8 5 5 6
8 4 13 10 8 12 9 6 7 6 5 7 10 8 6 9 21 19 20 21 21 22 23 22 20 21 18 16 16 15 17 17 16 16 17 16 16 10 7 5 6 5 5 5
5 11 4 7 9 5 9 7 1 1 3 12 10 8 16 12 19 24 26 27 24 24 23 23 22 18 18 18 19 17 17 18 18 17 17 16 16 13 14 10 7 7 5 3
9 7 16 6 10 11 9 11 8 8 5 10 6 12 9 14 12 19 20 24 21 21 22 24 25 22 20 21 20 19 19 18 18 18 19 17 16 10 11 10 8 7 7 7
8 11 4 10 6 17 6 10 10 6 2 3 6 7 7 5 12 13 20 17 20 21 22 25 25 23 22 20 23 22 20 20 19 20 17 17 15 14 13 12 9 8 8 7
4 2 7 18 6 12 12 12 5 1 7 6 5 4 7 10 13 14 9 18 19 17 21 22 22 22 21 22 21 21 21 21 20 19 17 16 18 17 14 11 12 12 10 9
6 3 4 9 12 17 4 5 3 7 6 7 0 8 9 10 15 19 19 18 17 17 19 21 21 21 22 19 18 21 21 20 20 19 18 18 16 16 15 13 13 13 11 11
2 2 6 7 3 14 20 14 8 9 8 6 5 9 4 10 11 11 10 13 10 13 17 20 21 20 18 20 18 20 19 19 20 19 19 20 18 17 17 16 14 13 13 10
6 3 2 5 8 3 6 10 8 4 2 19 8 6 8 6 7 9 11 10 9 9 9 14 14 16 19 19 19 19 19 22 20 19 18 18 18 18 19 18 16 14 14 13
2 1 3 3 3 3 7 8 9 15 12 12 20 3 4 8 10 10 10 10 9 8 8 12 13 16 18 18 19 19 20 19 18 19 19 20 20 21 20 19 18 16 16 15
4 0 2 4 11 8 12 16 14 20 21 14 9 15 10 9 11 15 13 7 6 9 8 10 13 14 15 15 16 17 17 17 18 18 19 22 19 19 18 18 17 16 16 16
5 3 2 4 10 14 13 14 17 14 13 17 12 10 9 13 9 7 10 8 9 10 10 9 9 10 11 15 17 18 17 19 20 20 23 20 19 18 19 17 17 17 16 17
3 2 2 5 6 10 13 13 14 11 10 12 18 11 7 10 10 13 13 10 11 12 12 11 13 12 13 14 16 18 19 17 19 20 19 19 19 19 19 17 16 18 18 16
4 2 2 5 4 10 7 3 10 21 19 14 9 13 17 16 14 16 17 18 14 11 11 11 11 12 12 14 14 14 13 16 18 19 18 16 17 18 18 18 20 19 17 18
17 5 3 4 6 11 19 4 5 5 13 13 12 10 14 19 10 9 10 11 15 13 14 16 15 14 13 13 14 12 12 15 15 16 16 17 19 19 18 19 21 18 16 16
13 12 6 4 7 8 3 3 5 5 6 7 10 11 14 7 7 10 8 9 13 11 7 10 10 6 7 10 8 12 15 15 17 18 20 19 20 20 20 21 19 16 15 16
5 8 16 13 6 7 4 6 3 8 6 13 7 11 13 11 12 15 5 8 9 10 12 8 9 11 15 9 12 14 14 16 21 18 16 16 17 18 18 15 14 15 14 12
7 7 6 7 7 16 1 5 4 3 6 13 16 15 15 16 17 9 6 5 6 8 5 6 5 3 4 2 7 10 14 18 6 8 13 14 16 14 14 17 14 15 17 18
5 8 5 11 7 6 5 5 5 5 7 10 16 20 16 18 15 7 4 6 5 5 5 5 7 7 6 5 6 4 2 4 6 5 5 4 4 7 9 12 11 7 9 10
5 3 8 7 8 7 3 5 4 8 5 15 18 16 10 6 8 9 8 7 9 8 9 9 12 12 10 8 6 3 5 7 8 9 8 7 7 5 3 3 3 6 6 7
7 6 5 8 21 12 5 3 6 6 13 16 16 6 9 9 13 16 13 11 11 10 11 11 13 10 9 7 8 5 3 3 4 5 6 6 6 9 9 6 3 6 3 4
7 8 7 12 9 8 4 4 8 5 10 13 13 8 13 11 15 16 14 11 11 12 12 12 11 9 7 7 6 7 7 6 8 8 6 6 7 7 7 11 10 15 19 21
Wind_Direction
182 166 212 204 210 180 205 217 196 210 216 170 215 219 191 177 184 182 181 189 199 208 202 201 202 200 192 191 188 187 185 193 183 184 188 203 217 216 223 228 216 199 196 177
116 219 198 179 196 179 218 220 257 287 256 171 189 223 184 184 192 188 184 192 203 201 193 198 197 198 197 192 192 189 194 190 191 192 198 190 185 201 204 219 223 206 191 190
197 218 170 191 180 198 206 211 201 220 348 85 92 309 157 212 212 189 203 204 208 203 201 201 197 197 198 201 198 195 196 192 192 194 179 100 90 71 143 208 216 216 199 206
215 223 186 173 201 176 215 165 168 218 141 233 152 256 229 196 202 200 200 201 206 206 211 208 207 208 199 205 202 203 199 196 194 184 186 197 198 203 209 197 199 205 197 208
208 185 183 205 196 166 209 160 180 178 187 294 218 70 261 174 204 211 207 210 207 207 206 203 204 210 212 201 198 198 194 195 194 192 195 194 201 205 191 176 191 198 204 208
188 183 180 185 171 175 156 102 49 53 103 245 217 178 230 189 207 213 215 219 213 207 208 211 206 210 213 205 201 200 195 196 189 192 198 197 203 190 186 180 192 196 206 204
187 214 206 152 165 159 153 109 315 262 189 239 185 204 233 213 205 205 205 217 214 210 208 211 210 201 202 198 197 192 194 197 193 193 197 202 203 196 201 196 190 182 191 194
172 218 202 185 189 189 191 163 155 195 210 240 128 228 237 198 216 220 213 220 218 213 212 212 210 207 200 196 198 193 191 199 194 193 198 202 203 199 204 198 192 202 199 203
164 240 211 170 168 161 205 186 177 85 262 39 227 299 308 198 205 203 220 219 221 215 212 213 212 207 203 200 198 195 196 196 195 198 197 197 199 203 205 198 189 196 195 198
228 205 204 209 132 190 154 157 152 83 195 233 279 254 225 195 208 214 206 210 221 210 209 213 212 209 205 201 199 196 197 196 195 198 195 198 198 198 203 198 195 198 197 196
10 119 312 115 199 186 130 174 164 159 157 199 303 254 209 209 219 209 222 218 213 207 207 210 209 205 203 202 193 198 196 194 195 191 196 196 198 200 202 204 202 201 194 196
14 90 224 200 244 215 207 198 152 175 224 239 166 242 237 233 202 202 229 234 210 203 205 208 205 200 196 199 195 196 194 197 198 195 193 197 193 195 199 204 205 196 197 196
328 343 78 24 303 129 193 208 170 134 87 221 185 250 223 222 236 232 224 244 243 228 200 207 203 197 198 194 193 191 193 201 196 193 195 198 196 193 200 204 203 195 196 193
38 72 107 247 294 316 300 229 200 200 217 224 235 265 238 243 248 252 240 231 235 228 222 204 198 199 197 192 193 190 197 197 192 194 195 196 198 197 199 203 201 195 195 194
80 338 309 257 281 260 249 263 268 225 226 219 223 225 227 234 227 241 230 244 235 240 219 203 199 196 196 194 192 194 193 189 188 192 196 204 199 201 202 201 200 198 197 200
347 252 61 278 269 277 271 260 254 250 262 244 235 245 208 214 220 253 231 216 228 237 227 214 209 202 193 190 191 191 191 190 184 190 202 197 197 198 202 200 197 200 197 199
310 210 112 258 295 314 285 247 250 242 219 218 228 224 227 242 224 225 243 228 216 227 227 206 205 200 202 196 191 193 193 185 191 197 203 198 195 198 201 197 197 202 202 192
207 197 172 244 324 246 248 310 268 242 224 221 229 211 213 228 233 223 219 223 226 220 226 225 219 209 202 196 192 199 187 189 194 203 199 194 197 205 197 195 202 204 201 202
199 172 251 207 219 297 302 3 14 16 261 224 189 223 220 225 247 266 212 213 221 217 217 218 217 212 208 195 192 178 183 191 194 199 197 198 196 199 199 203 205 204 202 203
188 205 216 162 206 228 180 255 252 164 255 33 7 265 217 169 215 251 229 203 223 220 205 211 223 229 187 205 166 167 187 184 196 197 202 198 196 198 200 204 205 204 201 207
147 186 216 241 253 282 245 257 276 189 285 317 312 279 289 236 211 219 212 218 221 212 213 221 180 201 212 186 164 184 181 193 207 200 196 198 198 199 202 202 199 196 205 208
174 173 189 222 239 235 50 298 170 299 296 302 302 289 273 266 268 234 221 243 237 238 225 197 190 92 81 104 176 180 185 208 185 188 195 195 196 196 196 195 193 195 193 199
234 192 201 198 218 249 147 214 257 255 281 305 304 293 265 261 249 235 148 88 74 68 67 78 110 81 43 86 99 134 45 107 107 146 209 211 242 230 214 199 197 215 202 205
272 339 251 321 239 222 203 277 227 249 17 320 303 296 269 209 126 97 80 63 73 54 60 72 78 71 54 41 59 124 187 172 156 173 171 155 150 138 119 139 171 187 193 209
238 332 301 287 290 289 202 257 270 324 25 321 322 358 33 102 104 106 97 90 86 84 75 74 75 72 59 40 45 32 50 120 126 120 128 125 112 110 105 82 63 100 43 130
202 225 210 247 249 257 229 280 296 25 12 326 325 29 45 62 86 93 87 86 85 79 82 79 75 74 66 51 37 20 28 83 103 93 87 99 113 113 109 100 84 53 102 97